Location: Molveno
(46.1500°N, 10.9667°E)
Time: 01:20:30
(UTC+00:00)

ATLAS 2AS CENTAUR R/B - Visible Passes

Search period start: 24 October 2020 00:00
Search period end: 03 November 2020 00:00
Orbit: 939 x 1273 km, 63.7° (Epoch: 19 October)

Date Brightness Start Highest point End Pass type
(mag) Time Alt. Az. Time Alt. Az. Time Alt. Az.
24 Oct 3.7 18:19:44 10° NNW 18:26:27 32° NNE 18:27:53 29° NE visible
24 Oct 3.9 20:10:52 10° NW 20:15:19 39° NW 20:15:19 39° NW visible
25 Oct 4.1 17:34:41 10° NW 17:40:58 26° NNE 17:44:30 19° ENE visible
25 Oct 3.3 19:25:57 10° NW 19:31:55 53° N 19:31:55 53° N visible
25 Oct 5.0 21:17:37 10° NW 21:19:21 17° WNW 21:19:21 17° WNW visible
26 Oct 4.3 16:49:29 10° NW 16:55:23 23° NNE 17:01:01 10° ENE visible
26 Oct 3.1 18:41:04 10° NW 18:48:22 47° NE 18:48:35 47° NE visible
26 Oct 4.4 20:32:21 10° NW 20:36:01 29° WNW 20:36:01 29° WNW visible
27 Oct 3.5 17:56:10 10° NNW 18:03:06 36° NNE 18:05:17 30° ENE visible
27 Oct 3.5 19:47:18 10° NW 19:52:43 50° NW 19:52:43 50° NW visible
28 Oct 3.9 17:11:11 10° NNW 17:17:42 29° NNE 17:22:02 17° ENE visible
28 Oct 2.7 19:02:21 10° NW 19:09:28 75° NNE 19:09:28 75° NNE visible
28 Oct 4.9 20:54:23 10° WNW 20:56:54 19° WNW 20:56:54 19° WNW visible
29 Oct 4.1 16:26:05 10° NW 16:32:11 24° NNE 16:37:59 10° ENE visible
29 Oct 2.9 18:17:27 10° NW 18:24:54 56° NE 18:26:17 49° E visible
29 Oct 4.1 20:08:55 10° NW 20:13:44 33° W 20:13:44 33° W visible
30 Oct 3.3 17:32:34 10° NNW 17:39:44 42° NE 17:43:10 26° E visible
30 Oct 3.1 19:23:46 10° NW 19:30:38 58° WSW 19:30:38 58° WSW visible
31 Oct 3.7 16:47:37 10° NNW 16:54:24 33° NNE 17:00:09 12° E visible
31 Oct 2.7 18:38:46 10° NW 18:46:17 86° SW 18:47:37 63° SSE visible
31 Oct 4.8 20:31:22 10° WNW 20:35:05 18° W 20:35:05 18° W visible
01 Nov 2.8 17:53:51 10° NW 18:01:22 68° NE 18:04:42 33° ESE visible
01 Nov 4.1 19:45:35 10° NW 19:51:45 30° WSW 19:52:11 30° WSW visible
02 Nov 3.1 17:08:58 10° NW 17:16:18 50° NE 17:21:56 15° ESE visible
02 Nov 3.5 19:00:17 10° NW 19:07:15 46° WSW 19:09:25 36° SSW visible
